Regional Weather Roundup
Issued by NWS

Home | Current Version | Previous Version | Graphics & Text | Print | Product List | Glossary On
Versions: 1 2 3 4 5 6 7 8 9 10 11 12 13 14 15 16 17 18 19 20 21 22 23 24 25 26 27 28 29 30 31 32 33 34 35 36 37 38 39 40 41 42 43 44 45 46 47 48 49 50
382
ASUS43 KMPX 100501
RWRMN
WEATHER ROUNDUP FOR MINNESOTA
NATIONAL WEATHER SERVICE TWIN CITIES/CHANHASSEN MN
1100 PM CST TUE FEB 09 2016


NOTE: "FAIR" INDICATES FEW OR NO CLOUDS BELOW 12,000 FEET WITH NO
SIGNIFICANT WEATHER AND/OR OBSTRUCTIONS TO VISIBILITY. N/A MEANS
CURRENT SKY AND/OR WEATHER CONDITIONS ARE NOT AVAILABLE.

MNZ060>063-068>070-100600-
   Twin Cities Metro

CITY           SKY/WX    TMP DP  RH WIND       PRES   REMARKS
TWIN CITIES    PTCLDY     9  -4  55 N10       30.16R WCI  -5
ST PAUL        CLOUDY     8  -4  58 NW10      30.18R WCI  -6
CRYSTAL        CLOUDY     9  -4  55 N7        30.15R WCI  -2
BLAINE         CLOUDY     9  -2  61 NW8       30.15R WCI  -4
LAKEVILLE      CLOUDY     3  -2  78 NW6       30.15R WCI  -8
EDEN PRAIRIE   CLOUDY     8  -3  61 NW9       30.15R WCI  -5
SOUTH ST PAUL  CLEAR     10  -4  54 N8        30.16R WCI  -2
LAKE ELMO      FAIR       9  -2  61 NW6       30.15R WCI  -1
$$
MNZ001>005-007-008-013>017-022>024-027-028-100600-
   Northwest Minnesota

CITY           SKY/WX    TMP DP  RH WIND       PRES   REMARKS
BEMIDJI        CLOUDY    -7 -10  86 NW6       30.14S WCI -20
HALLOCK        CLOUDY     0  -8  71 CALM      30.22F
ROSEAU         CLOUDY    -6 -11  77 NE3       30.20F
WARROAD        CLOUDY    -6 -11  77 NW3       30.20F
THIEF RVR FALL CLOUDY     0  -8  71 N7        30.19F WCI -13
CROOKSTON      MOCLDY     1  -2  85 N6        30.23S WCI -10
FOSSTON          N/A    -11 -17  77 NE3       30.17F
DETROIT LAKES  CLOUDY     0  -4  85 NW3       30.16S
MOORHEAD       CLOUDY     3  -2  78 N10       30.21F WCI -12
PARK RAPIDS    CLOUDY    -6 -11  79 NW6       30.13S WCI -19
MAHNOMEN       FAIR      -4  -8  85 NE5       30.17S WCI -15
$$
MNZ006-009>011-018-025>026-100600-
   North Central Minnesota

CITY           SKY/WX    TMP DP  RH WIND       PRES   REMARKS
BAUDETTE       CLOUDY    -8 -13  78 N8        30.16F WCI -24
FLAG ISLAND    CLOUDY    -9 -13  84 NW6       30.18F WCI -23
INTL FALLS     CLOUDY    -4  -9  79 N7        30.15S WCI -18
WASKISH        CLOUDY    -6  -9  84 CALM      30.16S
LONGVILLE      CLOUDY    -2  -8  78 NW5       30.14R WCI -12
GRAND RAPIDS   CLOUDY    -4  -9  77 NW7       30.10S WCI -18
CRANE LAKE     CLOUDY    -6  -9  84 N3        30.14F
ORR            CLOUDY    -9 -15  77 CALM      30.07S
COOK           CLOUDY    -4  -8  84 N3        30.09F
WALKER         FAIR      -4  -9  81 NW5       30.14S WCI -15
$$
MNZ012-019>021-037-100600-
   Northeast Minnesota

CITY           SKY/WX    TMP DP  RH WIND       PRES   REMARKS
DULUTH         PTCLDY    -1  -8  72 N9        30.05F WCI -16
ELY            CLOUDY    -2  -8  78 NW6       30.06S WCI -14
HIBBING        CLOUDY    -4  -9  79 N9        30.08F WCI -20
EVELETH        CLOUDY     0  -6  78 N5        30.08S WCI -10
DULUTH HARBOR  MOCLDY     7   0  72 N16G22    30.16S WCI -11
TWO HARBORS    MOCLDY     1  -6  71 CALM      30.06F
SILVER BAY     PTCLDY    -6  -9  84 CALM      30.06S
G MARAIS ARPRT CLOUDY    -6 -13  71 NW12G18   29.95S WCI -24
$$
MNZ029>031-032-039>041-046>048-054>057-064-100600-
   West Central Minnesota

CITY           SKY/WX    TMP DP  RH WIND       PRES   REMARKS
FERGUS FALLS   CLOUDY     3   0  85 N3        30.22R
WHEATON        CLOUDY    12   7  79 N5        30.20S WCI   4
MORRIS         CLOUDY    10   5  79 N6        30.16F WCI   1
ALEXANDRIA     CLOUDY     2  -2  83 N8        30.14F WCI -12
ELBOW LAKE     MOCLDY     5   1  84 N5        30.17R WCI  -4
WADENA         CLOUDY    -2  -6  84 NW5       30.15R WCI -12
GLENWOOD       CLOUDY     3   0  85 N7        30.14F WCI  -9
APPLETON       CLOUDY    12   7  79 NW6       30.18F WCI   3
BENSON         CLOUDY    10   1  67 NE8       30.16F WCI  -1
ORTONVILLE     CLOUDY    12   5  73 N5        30.17F WCI   4
MADISON        CLOUDY    16   7  67 N7        30.18F WCI   6
WILLMAR        FAIR       9   1  72 N7        30.16F WCI  -3
$$
MNZ033>034-036-042>043-049>051-058-059-100600-
   Central Minnesota

CITY           SKY/WX    TMP DP  RH WIND       PRES   REMARKS
ST CLOUD       CLOUDY     4  -2  76 N6        30.15F WCI  -7
SAUK CENTRE    FAIR       1  -4  81 NW5       30.15F WCI  -9
PAYNESVILLE    CLOUDY     5  -1  77 N5        30.15F WCI  -4
AITKIN         CLOUDY     0  -9  65 CALM      30.12F
PINE RIVER     CLOUDY    -6  -9  84 CALM      30.17S
BRAINERD       CLOUDY     0  -7  72 N6        30.14F WCI -12
STAPLES        CLOUDY    -4  -8  84 CALM      30.14S
LONG PRAIRIE   FAIR       1  -4  78 NW5       30.14F WCI  -8
LITTLE FALLS   CLOUDY     3  -6  66 CALM      30.16F
LITCHFIELD     CLOUDY     7   1  78 NW7       30.15F WCI  -5
BUFFALO        CLEAR      6   0  75 NW5       30.16F WCI  -2
MAPLE LAKE     CLOUDY     8   2  76 NW7       30.16F WCI  -3
$$
MNZ037-044-045-052-053-100600-
   East Central Minnesota

CITY           SKY/WX    TMP DP  RH WIND       PRES   REMARKS
PRINCETON      PTCLDY     5  -4  66 NW7       30.14F WCI  -7
MORA           CLOUDY     5  -4  66 N5        30.16S WCI  -4
CAMBRIDGE      CLOUDY     9  -2  61 NW8       30.13S WCI  -4
RUSH CITY      PTCLDY     5  -4  66 N8        30.14F WCI  -8
MOOSE LAKE     CLOUDY     1  -6  71 NW3       30.11S
HINCKLEY       FAIR       5  -4  66 NW7       30.13S WCI  -7
CLOQUET        CLOUDY     0  -9  65 NW7       30.08S WCI -13
MCGREGOR       CLOUDY     0  -6  78 NW5       30.13S WCI -10
$$
MNZ071>073-080-081-089-090-097-098-100600-
   Southwest Minnesota

CITY           SKY/WX    TMP DP  RH WIND       PRES   REMARKS
MONTEVIDEO     CLOUDY    12   7  79 N5        30.19F WCI   4
GRANITE FALLS  CLOUDY    16   8  70 NW7       30.18F WCI   6
CANBY          CLOUDY    18  13  80 N3        30.17F
MARSHALL       CLOUDY    15   9  76 N10       30.17F WCI   2
REDWOOD FALLS  CLOUDY    14   6  70 N8        30.16F WCI   3
OLIVIA         PTCLDY    12   5  73 N9        30.15F WCI   0
PIPESTONE      CLOUDY    19   7  58 NE6       30.11F WCI  11
WINDOM         CLOUDY    16   9  73 NW14      30.13F WCI   1
WORTHINGTON    CLOUDY    16  10  79 N9        30.14F WCI   4
JACKSON        CLOUDY    18   9  68 NW14      30.13S WCI   4
TRACY          CLOUDY    17   9  72 N9        30.15F WCI   5
SLAYTON        CLOUDY    16  13  88 N9        30.13F WCI   4
$$
MNZ065>067-074>077-082>085-091>093-100600-
   South Central Minnesota

CITY           SKY/WX    TMP DP  RH WIND       PRES   REMARKS
MANKATO        CLOUDY     9   0  66 NW12      30.15R WCI  -6
NEW ULM        CLEAR     10   3  72 N10       30.16R WCI  -3
ST JAMES       CLOUDY     9   3  78 NW9       30.17S WCI  -5
FAIRMONT       CLOUDY    10   3  72 NW10      30.14S WCI  -3
GLENCOE        CLEAR      9   3  77 NW7       30.15S WCI  -2
FARIBAULT        N/A      7   0  72 NW6       30.14R WCI  -3
OWATONNA       CLOUDY     7   0  72 W9        30.13R WCI  -7
WASECA         CLOUDY     7   0  72 NW8       30.14S WCI  -6
ALBERT LEA     CLEAR      7   1  78 NW7       30.12R WCI  -5
$$
MNZ078>079-086>088-094>096-100600-
   Southeast Minnesota

CITY           SKY/WX    TMP DP  RH WIND       PRES   REMARKS
ROCHESTER      CLOUDY     2  -5  72 NW9       30.08R WCI -13
RED WING       CLEAR      9  -6  52 W5        30.13R WCI   0
STANTON        CLOUDY     8  -4  59 NW7       30.13R WCI  -4
DODGE CENTER   CLOUDY     5  -2  72 NW12      30.08R WCI -11
WINONA         CLEAR     10   0  61 NW8       30.12R WCI  -1
AUSTIN         CLEAR      7   1  78 NW14      30.09R WCI -10
PRESTON        CLOUDY     4  -6  64 NW10      30.07R WCI -11
$$
ABBREVIATIONS USED IN REMARKS
   TC - TEMPERATURES IN CELSIUS
  WCI - WIND CHILL INDEX
   HX - HEAT INDEX
  VSB - VISIBILITY
$$




USA.gov is the U.S. government's official web portal to all federal, state and local government web resources and services.